Dewpoint
72 72 73 73 73 73 73 73 74 75 76 77 76 76 75 74 74 74 74 74 74 73 73 73 72 72 71 70 71 71 72 73 73 73 73 73 73 73 75 75 75 75 75 75 74 74 74 73 72 72 73 73 73 73 73 73 74 75 75 75 76 75 75 75 75 75 75 75 75 74 75 75 75 75 74 75 75 75 75 74 74 74 74 74 74
73 73 73 72 72 71 72 72 73 75 76 76 76 76 75 74 74 74 74 74 74 72 74 73 73 72 71 70 72 72 72 72 73 73 73 73 73 73 75 75 75 75 75 75 75 74 74 73 73 73 72 73 73 72 73 73 72 74 75 75 75 76 75 75 75 75 75 75 75 74 74 75 75 74 74 74 74 74 75 75 75 74 74 74 74
73 73 73 72 71 70 69 70 72 74 76 76 76 76 75 75 74 74 74 74 74 73 73 72 73 73 73 71 72 72 72 72 72 73 73 73 73 73 73 75 75 75 75 75 75 75 75 74 74 73 73 73 73 73 73 73 73 73 75 75 75 75 75 75 75 75 75 75 76 76 75 75 75 75 75 75 74 74 75 75 75 75 75 75 74
74 73 72 70 69 67 67 69 71 74 76 76 76 76 75 75 74 74 74 74 74 74 74 74 73 73 73 72 72 72 72 72 72 72 72 73 73 72 73 73 75 75 75 75 76 75 75 74 74 74 73 73 73 72 72 73 73 73 74 75 75 75 76 75 75 75 75 75 75 76 76 75 75 75 75 75 75 75 75 74 74 75 75 75 75
74 74 73 70 69 68 69 70 70 74 75 75 75 75 75 75 74 75 74 74 74 74 74 74 74 74 73 73 73 72 72 72 72 73 72 72 72 72 73 73 73 75 75 75 75 75 75 75 74 74 73 73 73 73 72 73 73 73 74 75 75 75 76 76 75 75 75 75 75 75 75 75 75 75 75 75 75 75 75 75 75 75 75 75 75
74 73 72 71 70 70 69 69 72 74 75 75 75 75 75 74 74 74 74 74 73 73 74 73 74 74 73 72 73 73 73 72 72 73 73 73 73 73 73 73 73 73 75 75 76 76 75 75 75 75 74 74 73 73 73 73 73 73 74 75 75 75 75 75 75 75 75 75 75 75 75 75 76 76 76 76 76 76 76 75 75 75 75 75 75
74 73 73 71 70 70 70 70 71 74 74 74 74 74 74 74 74 73 73 74 74 74 73 73 73 73 73 73 73 73 72 72 73 72 72 73 73 73 73 73 73 73 73 74 75 76 75 75 75 74 75 74 74 73 73 73 73 74 74 75 75 75 75 75 75 75 75 75 76 75 75 75 75 76 76 76 76 76 76 76 76 76 76 75 75
74 74 73 72 71 71 71 72 71 73 73 74 74 73 74 73 73 73 72 72 73 73 73 73 73 72 73 73 73 73 72 72 72 72 72 73 73 73 73 73 73 73 74 74 75 75 75 75 75 75 74 75 74 74 74 73 73 74 75 74 75 75 75 75 75 75 75 75 76 76 76 76 75 75 76 76 76 76 76 76 76 76 76 76 76
74 74 73 73 73 72 72 73 73 72 72 72 73 73 73 72 73 73 72 72 72 72 73 72 73 73 73 72 72 72 72 72 72 72 73 72 72 73 73 73 74 75 74 74 75 75 76 76 76 75 75 74 75 75 74 74 74 74 74 75 75 75 75 75 74 75 75 75 75 75 76 75 76 76 76 76 76 76 76 76 76 76 76 76 76
74 74 74 73 73 73 73 74 74 72 71 71 72 72 72 72 72 72 73 72 72 71 71 72 72 72 73 72 72 72 72 72 73 73 72 72 72 72 73 73 73 74 74 74 74 75 75 75 76 75 75 75 74 74 75 74 74 74 74 75 75 75 75 75 75 75 74 75 75 75 75 75 75 75 75 76 76 76 76 76 76 76 76 76 76
74 73 73 73 73 73 73 74 74 72 71 70 71 72 72 72 71 71 73 73 72 72 72 72 72 72 71 72 72 72 72 72 72 73 72 72 72 72 73 73 73 74 74 74 74 75 75 75 75 75 75 75 75 75 75 75 74 74 74 74 74 75 75 75 75 75 75 75 76 76 75 75 74 75 75 75 75 76 76 76 76 76 76 76 76
73 72 73 73 73 73 73 74 74 73 72 70 70 70 71 71 71 70 71 72 73 72 72 72 72 71 71 72 72 72 71 71 72 72 73 73 72 73 72 73 73 74 74 74 74 74 74 75 75 75 75 75 75 75 74 75 75 75 75 75 75 75 75 75 75 75 75 75 75 75 75 75 75 75 75 75 75 76 76 76 76 76 76 76 76
75 74 73 73 73 72 72 72 72 73 73 72 72 71 70 70 71 73 72 71 71 72 72 72 70 70 70 70 70 72 72 72 71 72 72 73 73 73 73 73 73 73 74 74 74 74 74 74 74 75 75 75 75 76 75 75 76 76 76 76 76 75 76 76 75 75 75 76 75 75 76 76 76 76 76 76 76 76 76 76 76 76 76 75 76
73 74 73 72 72 72 72 71 72 72 72 73 72 74 72 71 70 72 73 71 71 71 71 71 68 68 67 68 70 71 71 71 71 71 71 72 73 73 73 73 73 73 73 73 73 74 74 74 74 74 74 75 75 75 76 75 75 75 75 75 76 77 77 76 76 76 76 76 75 75 75 76 76 75 76 76 76 76 76 76 76 76 76 76 76
72 73 73 72 72 72 71 72 71 72 71 72 72 72 73 72 72 70 71 72 71 72 71 71 69 69 70 67 66 65 69 70 71 71 71 72 72 72 72 73 73 73 73 73 73 73 73 74 74 74 74 74 74 74 74 75 75 76 76 76 76 76 76 76 76 76 76 76 76 76 76 76 76 76 76 76 76 76 76 76 76 76 76 76 76
72 73 74 73 72 72 71 72 72 72 72 71 72 72 73 72 72 72 70 69 70 70 71 71 69 70 67 65 66 65 64 67 67 70 71 72 71 71 72 72 73 73 73 73 72 73 73 74 73 74 74 74 74 74 74 74 74 75 76 76 76 76 76 76 76 76 75 76 76 76 76 76 76 76 76 76 76 76 76 76 76 76 76 76 76
75 75 74 74 73 72 72 71 71 72 71 71 72 72 73 73 73 73 71 70 69 70 71 70 69 70 68 67 66 65 64 66 67 69 71 71 71 71 72 73 73 73 73 73 73 73 73 73 73 74 74 74 74 74 74 74 74 75 74 75 76 76 76 76 76 76 76 75 76 76 76 77 77 77 77 76 76 76 76 76 76 76 76 76 76
75 75 74 74 72 72 71 72 72 72 72 72 72 72 72 72 73 73 72 71 71 69 69 71 70 71 70 69 68 65 66 66 65 66 70 72 72 72 72 73 73 73 73 73 73 73 73 73 73 74 74 74 74 74 74 74 74 74 74 74 75 76 76 76 77 77 76 76 76 76 76 77 77 77 77 77 77 77 77 76 76 76 76 76 76
74 74 75 75 73 73 72 73 72 72 73 73 73 73 73 73 74 73 72 72 71 69 68 68 70 70 70 69 69 68 71 66 66 66 65 68 71 72 73 73 73 73 73 73 73 73 73 73 73 73 74 74 74 74 74 74 74 74 74 75 75 75 75 76 76 76 76 76 76 76 76 76 77 77 77 77 77 77 77 77 77 76 76 76 76
74 74 75 75 74 74 74 74 73 73 74 73 73 73 73 73 73 73 72 72 71 70 69 68 68 68 69 69 69 68 68 68 69 66 65 65 67 71 73 73 73 73 73 73 73 73 73 73 73 73 73 74 74 74 74 74 74 74 74 75 75 75 75 76 76 76 76 76 76 76 76 76 77 77 77 77 77 77 77 77 77 77 76 76 76
73 74 74 74 74 74 73 73 72 73 73 73 73 73 73 73 72 71 71 71 70 70 70 69 68 68 69 69 69 68 68 68 68 69 66 65 65 66 67 72 73 73 73 73 73 73 73 73 74 73 73 74 74 74 73 74 74 74 74 75 76 76 76 76 76 76 76 77 76 76 77 77 76 76 76 76 76 76 77 77 77 77 77 76 76
73 73 74 74 74 73 73 73 74 73 74 73 73 73 73 73 72 71 71 70 71 71 70 70 70 69 69 69 69 68 68 68 68 68 68 67 66 66 67 66 68 70 73 74 73 73 73 73 73 73 73 74 74 74 73 74 74 73 74 75 75 76 76 76 76 76 76 77 77 77 77 77 77 77 76 76 76 76 76 76 76 77 76 76 76
72 73 73 74 74 74 74 73 74 74 74 73 73 72 73 73 73 72 72 72 71 71 71 71 72 71 69 70 69 68 68 67 68 68 67 67 67 66 67 67 66 67 69 72 74 74 74 73 73 73 73 73 74 74 74 74 74 74 75 75 75 76 76 76 77 77 77 77 77 77 77 77 77 77 77 77 77 76 76 76 76 76 76 76 76
70 70 70 71 72 73 73 73 73 73 73 73 73 73 71 72 73 73 72 73 73 73 72 72 71 71 70 70 70 69 69 68 69 71 70 68 68 66 66 68 68 68 69 71 74 74 74 74 74 73 73 73 73 74 74 74 74 75 75 75 75 76 76 76 77 77 77 77 77 77 77 77 77 77 77 77 77 77 77 76 76 76 76 76 76
68 68 69 69 71 71 72 73 73 73 74 74 74 73 71 73 71 72 73 72 72 72 72 72 71 72 71 71 70 69 69 70 69 69 70 71 70 67 66 66 66 66 68 68 70 72 73 74 74 74 74 73 73 73 73 73 74 74 76 75 76 76 76 76 77 77 77 77 78 78 78 78 78 78 77 77 77 77 77 77 77 77 77 77 76
67 68 68 70 70 70 72 73 73 74 74 74 74 74 73 71 72 71 70 70 70 70 70 69 70 70 72 71 70 70 69 70 69 69 68 68 67 66 66 66 65 65 68 70 70 69 72 74 74 75 75 74 74 74 74 73 73 75 76 75 75 75 75 76 76 77 77 77 78 78 78 78 78 78 77 76 76 77 76 77 77 77 77 77 77
68 68 70 69 69 70 71 73 73 73 74 73 74 74 74 72 72 71 71 71 70 71 71 71 70 69 69 70 70 69 69 69 69 69 69 68 68 68 66 65 65 65 65 69 70 69 68 72 73 74 75 75 75 75 75 74 74 75 76 75 75 75 75 75 75 76 77 78 78 78 78 78 78 78 78 77 77 77 77 77 77 78 77 77 78
68 68 68 69 69 69 71 71 72 72 73 73 73 73 74 73 72 72 71 71 70 70 70 70 70 70 69 70 70 70 70 69 69 69 69 69 68 68 68 67 66 65 65 65 66 68 70 70 73 74 74 75 75 75 75 75 74 76 76 75 75 75 74 74 74 75 76 77 78 78 78 79 79 79 79 78 78 78 78 77 77 77 77 77 77
67 69 69 69 69 70 70 69 70 70 71 72 72 72 73 73 72 72 72 72 71 70 71 70 71 71 71 69 70 70 70 71 71 70 71 70 69 68 68 66 67 66 65 64 66 65 68 69 70 74 73 74 75 75 74 75 75 75 75 76 75 76 74 73 74 74 74 75 76 76 77 78 78 79 79 78 79 79 79 79 78 78 78 77 77
69 69 70 68 68 70 68 68 68 69 70 71 71 72 72 72 72 73 73 73 72 71 71 71 71 71 71 70 71 70 71 70 72 71 72 71 70 69 69 69 68 67 66 65 66 66 67 69 70 72 75 74 74 75 74 75 75 75 75 75 75 75 74 73 74 73 73 73 74 74 75 76 77 78 78 79 79 79 79 79 79 79 78 78 78
70 68 68 67 68 68 68 68 69 69 70 70 71 72 72 72 73 73 73 73 72 71 71 71 71 71 70 70 71 70 71 70 72 71 69 70 70 71 70 68 69 68 68 67 65 67 66 67 69 72 72 74 74 74 74 75 75 75 75 75 75 75 75 75 74 73 73 73 73 73 74 76 77 77 78 78 78 79 79 79 79 79 79 79 78
68 67 67 67 68 67 68 68 69 69 69 70 70 70 71 72 72 72 73 73 72 71 72 72 72 71 70 69 70 70 72 70 70 71 70 69 69 70 70 70 69 69 69 67 66 66 68 67 67 67 69 71 73 73 74 75 75 75 75 75 76 75 75 75 74 73 72 72 72 72 72 73 75 77 77 78 78 78 79 78 79 79 79 79 79
67 67 67 67 68 68 68 69 69 69 69 69 69 69 70 70 71 71 72 71 71 71 72 72 72 71 70 69 70 71 71 70 70 70 70 70 70 71 70 70 69 69 68 68 66 67 68 68 68 68 70 69 70 73 73 74 76 75 75 76 76 75 75 75 75 73 72 72 72 72 71 72 73 74 76 77 77 78 78 78 78 78 79 78 78
67 67 67 67 67 68 68 68 68 68 68 68 68 69 69 69 69 70 70 71 71 71 72 71 71 71 72 71 72 71 72 71 70 70 70 70 70 70 69 70 69 69 69 67 66 67 66 69 69 70 69 71 69 72 73 73 75 75 75 75 75 76 76 76 76 75 72 72 72 71 71 71 71 72 74 75 76 77 77 78 78 78 77 76 76
67 67 67 67 67 68 68 68 68 68 68 68 69 69 69 69 69 69 70 70 70 70 70 71 71 71 70 71 71 71 71 71 71 71 71 70 70 70 69 69 69 69 70 69 67 66 66 67 69 68 69 71 71 72 74 74 75 75 75 74 75 76 76 75 75 76 72 71 71 71 71 70 70 71 72 72 73 74 74 75 75 74 74 73 73
66 67 67 67 68 68 67 67 67 68 68 68 68 69 69 69 69 69 69 70 70 70 70 70 70 71 71 71 70 70 71 71 70 70 70 70 70 70 70 70 70 69 69 69 69 67 66 66 68 67 69 70 71 73 73 74 75 75 75 75 76 75 75 75 75 75 74 72 71 71 70 70 70 70 70 70 71 72 72 70 71 71 71 71 71
66 66 67 67 67 67 66 67 67 67 68 68 68 68 68 69 69 69 69 69 69 69 70 70 71 71 70 70 70 70 70 70 70 69 69 70 70 70 69 70 70 70 70 70 69 69 67 67 68 69 70 71 72 73 74 74 75 75 76 75 75 75 75 75 76 76 73 72 71 70 70 70 70 69 69 69 69 69 69 69 69 69 69 69 69
66 66 66 66 67 67 66 67 67 67 68 68 68 68 68 68 69 69 69 69 69 69 70 70 70 70 70 70 71 71 71 70 70 70 70 70 70 70 69 70 70 70 70 70 70 70 69 68 69 68 70 68 71 73 74 74 73 73 74 75 75 75 75 74 75 76 76 75 75 74 70 69 69 68 68 68 68 68 68 68 68 67 67 67 67
66 65 66 66 66 66 66 67 67 67 67 68 68 68 68 68 68 68 69 69 69 69 70 70 70 70 70 71 71 71 71 71 70 70 70 70 70 70 70 70 70 70 69 70 70 69 69 68 68 68 68 70 70 69 72 74 75 74 72 73 73 75 75 75 75 76 76 75 74 73 73 73 72 71 68 67 68 68 68 68 68 68 68 66 65
65 65 65 65 65 66 66 67 67 68 68 67 67 67 68 68 68 69 69 69 69 69 69 70 70 70 70 71 71 71 71 71 71 71 71 70 70 69 69 69 70 69 69 70 70 70 69 68 68 68 68 68 70 71 73 74 74 74 73 72 72 73 74 75 75 75 76 76 76 76 74 74 73 73 70 69 68 68 69 68 68 69 68 67 66
66 66 65 65 65 65 66 66 67 66 66 66 67 67 68 68 69 69 69 69 69 69 69 69 70 70 70 70 70 71 71 72 72 72 71 71 70 70 70 71 70 70 70 70 69 70 69 69 68 68 67 67 68 69 71 71 71 71 74 73 73 73 74 74 75 75 76 75 75 75 76 77 78 77 76 76 74 71 71 69 70 69 69 67 66
64 65 65 65 65 65 65 66 66 66 66 66 67 68 68 68 68 68 68 69 69 69 69 69 69 70 70 70 70 71 70 70 71 71 70 71 71 70 70 69 70 69 69 69 69 69 69 68 68 68 67 67 68 69 68 70 72 73 73 73 72 74 73 73 74 74 75 74 74 75 76 77 76 77 77 76 76 75 74 72 72 71 69 67 66
64 64 65 64 64 65 65 65 65 65 65 66 67 67 67 68 68 68 68 68 68 68 68 68 68 69 69 70 70 70 71 71 71 71 71 71 70 71 70 71 70 70 69 68 69 70 69 68 68 69 68 68 68 69 69 69 71 72 72 73 73 73 72 71 70 74 75 75 75 74 75 76 76 76 77 76 77 77 76 76 70 69 68 67 66
63 64 63 63 64 64 64 64 64 65 65 66 65 66 66 66 67 68 68 68 67 67 68 67 68 68 68 69 70 70 70 70 71 71 71 71 71 71 71 71 71 71 70 70 69 70 69 69 69 69 69 68 68 69 69 69 70 72 73 73 73 72 72 72 71 70 75 75 75 74 73 75 76 76 76 76 77 77 76 73 69 68 68 68 67
64 63 62 63 63 63 63 64 64 64 65 65 65 65 65 65 66 67 67 67 66 67 67 67 67 67 68 68 68 69 70 70 71 72 71 71 72 72 71 70 70 71 68 69 70 70 70 70 69 69 69 70 69 69 70 70 71 70 72 72 72 72 72 72 72 71 74 74 74 73 72 74 75 75 75 76 77 76 76 69 68 68 68 67 67
62 62 62 62 62 63 63 63 64 64 64 65 64 64 63 64 64 65 66 66 66 66 66 67 67 67 68 68 68 68 69 70 70 70 70 70 70 70 70 70 70 70 70 70 70 71 71 70 70 69 70 71 70 70 71 71 71 69 70 71 72 72 72 71 73 74 74 75 73 73 72 73 74 74 74 76 76 75 75 70 66 67 67 66 66
62 62 62 62 62 63 63 63 63 63 64 64 63 63 62 62 63 65 66 66 66 66 66 66 66 67 67 67 68 68 68 69 69 70 69 69 69 69 69 69 69 70 70 70 70 69 70 70 71 71 71 72 71 71 71 72 72 72 72 72 72 73 73 73 72 73 73 74 74 73 70 73 74 73 74 75 73 73 72 65 64 66 65 65 65
62 62 62 62 62 62 62 62 63 63 63 62 62 61 61 61 63 65 66 65 65 65 65 66 66 67 67 68 67 67 68 68 69 69 70 70 69 67 68 68 69 69 70 70 68 68 70 71 70 71 71 72 70 72 72 72 72 72 73 73 72 72 71 70 70 71 71 73 74 73 71 71 74 73 74 74 73 72 71 70 64 64 64 64 64
61 61 61 61 62 62 62 63 63 63 62 62 61 60 60 60 64 65 65 65 65 65 65 66 66 67 67 67 67 67 67 68 68 65 66 69 67 67 67 67 68 68 69 69 68 66 66 65 65 66 66 66 66 66 65 66 70 71 71 70 69 70 70 69 69 70 69 71 72 74 72 71 72 73 73 72 72 71 70 69 68 62 62 63 63
61 61 61 62 62 63 63 62 62 62 63 63 61 60 60 60 63 64 65 64 64 64 65 66 66 66 67 67 68 68 68 68 67 64 65 67 66 66 66 67 67 67 68 69 69 69 67 65 65 65 65 65 66 66 66 65 65 69 70 68 68 70 69 69 68 69 70 70 72 73 72 71 73 72 72 72 72 72 71 70 68 65 60 61 61
61 62 62 61 61 61 62 62 63 62 63 63 60 60 59 59 62 64 64 64 63 64 64 65 66 66 66 67 68 68 68 68 64 63 63 67 67 66 66 66 66 66 67 68 68 68 69 69 69 69 70 70 71 71 71 69 68 70 71 70 70 69 67 68 69 70 68 69 72 74 71 72 71 71 71 70 70 71 71 70 68 67 67 67 66